Tulsa Jones, OK

9:12 AM CDT on May 26, 2017 (GMT -0500)
Jones Jr.

Weather History for KRVS - May, 2013

Change the Weather History Date:

Saturday, May 4, 2013

  Actual Average (KTUL) Record (KTUL)
Temperature  
Mean Temperature 44 °F -  
Max Temperature 50 °F 77 °F 96 °F (1920)
Min Temperature 41 °F 53 °F 36 °F (1954)
Degree Days  
Heating Degree Days 20    
Moisture  
Dew Point 40 °F    
Average Humidity 82    
Maximum Humidity 90    
Minimum Humidity 68    
Precipitation  
Precipitation 0.13 in - - ()
Sea Level Pressure  
Sea Level Pressure 29.98 in    
Wind  
Wind Speed 5 mph (NNW)    
Max Wind Speed 10 mph    
Max Gust Speed 20 mph    
Visibility 10 miles    
Events Rain    
Averages and records for this station are not official NWS values.
T = Trace of Precipitation, MM = Missing Value Source: NWS Daily Summary

Daily Weather History Graph

Daily Weather History Graph

Search for Another Location

Airport or City:

Trip Planner

Search our weather history database for the weather conditions in past years. The results will help you decide how hot, cold, wet, or windy it might be!

Date:

Astronomy

May. 04, 2013 Rise Set
Actual Time 6:27 AM CDT 8:14 PM CDT
Civil Twilight 6:00 AM CDT 8:41 PM CDT
Nautical Twilight 5:26 AM CDT 9:15 PM CDT
Astronomical Twilight 4:51 AM CDT 9:51 PM CDT
Moon 3:17 AM CDT (5/4) 3:21 PM CDT (5/4)
Length of Visible Light 14h 41m
Length of Day
13h 46m
Waning Crescent, 27% of the Moon is Illuminated
May 4
Waning Crescent
May 9
New
May 17
First Quarter
May 24
Full
May 31
Last Quarter

Hourly Weather History & Observations

Time (CDT) Temp. Windchill Dew Point Humidity Pressure Visibility Wind Dir Wind Speed Gust Speed Precip Events Conditions
12:53 AM 43.0 °F 39.5 °F 35.1 °F 74% 29.99 in 10.0 mi North 5.8 mph - N/A   Partly Cloudy
1:53 AM 44.1 °F - 37.0 °F 76% 29.97 in 10.0 mi Calm Calm - N/A   Mostly Cloudy
2:53 AM 45.0 °F - 37.9 °F 76% 29.96 in 10.0 mi Calm Calm - N/A   Overcast
3:53 AM 45.0 °F 40.6 °F 35.1 °F 68% 29.95 in 10.0 mi NE 8.1 mph - N/A   Overcast
4:53 AM 43.0 °F - 37.0 °F 80% 29.95 in 10.0 mi Calm Calm - 0.00 in Rain Light Rain
5:53 AM 44.1 °F 41.5 °F 36.0 °F 73% 29.92 in 10.0 mi Variable 4.6 mph - 0.00 in   Overcast
6:53 AM 44.1 °F 42.5 °F 36.0 °F 73% 29.94 in 10.0 mi North 3.5 mph - 0.00 in Rain Light Rain
7:53 AM 43.0 °F 38.2 °F 36.0 °F 76% 29.94 in 10.0 mi WNW 8.1 mph - 0.01 in Rain Light Rain
8:05 AM 42.8 °F 38.6 °F 37.4 °F 81% 29.93 in 10.0 mi Variable 6.9 mph - 0.01 in Rain Light Rain
8:53 AM 41.0 °F 39.0 °F 37.0 °F 86% 29.95 in 10.0 mi Variable 3.5 mph - 0.01 in Rain Light Rain
9:27 AM 41.0 °F 37.1 °F 37.4 °F 87% 29.93 in 10.0 mi Variable 5.8 mph - 0.02 in Rain Light Rain
9:53 AM 41.0 °F 38.0 °F 37.9 °F 89% 29.95 in 10.0 mi Variable 4.6 mph - 0.04 in Rain Light Rain
10:28 AM 41.0 °F 35.2 °F 37.4 °F 87% 29.94 in 7.0 mi WNW 9.2 mph - 0.02 in Rain Light Rain
10:53 AM 42.1 °F 39.2 °F 37.9 °F 85% 29.96 in 8.0 mi Variable 4.6 mph - 0.04 in Rain Light Rain
11:25 AM 42.8 °F 37.0 °F 39.2 °F 87% 29.94 in 10.0 mi NW 10.4 mph 17.3 mph 0.01 in Rain Light Rain
11:53 AM 45.0 °F 40.6 °F 39.9 °F 82% 29.97 in 10.0 mi NW 8.1 mph - 0.01 in   Overcast
12:53 PM 45.0 °F 41.2 °F 39.0 °F 80% 29.97 in 10.0 mi Variable 6.9 mph 16.1 mph N/A   Overcast
1:53 PM 45.0 °F 41.2 °F 39.0 °F 80% 29.98 in 10.0 mi Variable 6.9 mph - N/A   Overcast
2:53 PM 46.9 °F - 39.0 °F 74% 29.97 in 10.0 mi WNW 9.2 mph 19.6 mph N/A   Overcast
3:53 PM 46.0 °F 43.9 °F 42.1 °F 86% 29.98 in 10.0 mi Variable 4.6 mph - 0.00 in Rain Light Rain
4:04 PM 46.4 °F 42.9 °F 42.8 °F 87% 29.96 in 10.0 mi Variable 6.9 mph - 0.00 in   Overcast
4:34 PM 46.4 °F 42.4 °F 42.8 °F 87% 29.96 in 5.0 mi NW 8.1 mph - 0.00 in Rain Light Rain
4:53 PM 46.9 °F - 44.1 °F 90% 29.98 in 10.0 mi NW 6.9 mph - 0.01 in   Overcast
5:53 PM 46.9 °F - 44.1 °F 90% 29.99 in 10.0 mi NW 6.9 mph - 0.01 in   Overcast
6:34 PM 48.2 °F - 44.6 °F 87% 29.98 in 10.0 mi Variable 5.8 mph - N/A   Mostly Cloudy
6:45 PM 48.2 °F - 42.8 °F 82% 29.98 in 10.0 mi Variable 6.9 mph - N/A   Mostly Cloudy
6:53 PM 48.9 °F - 44.1 °F 83% 29.99 in 10.0 mi NNW 6.9 mph - N/A   Mostly Cloudy
7:53 PM 48.9 °F - 42.1 °F 77% 30.01 in 10.0 mi Variable 3.5 mph - N/A   Overcast
8:26 PM 48.2 °F - 42.8 °F 82% 30.00 in 10.0 mi Variable 3.5 mph - N/A   Overcast
8:53 PM 48.0 °F - 42.1 °F 80% 30.03 in 10.0 mi Variable 4.6 mph - N/A   Overcast
9:11 PM 48.2 °F - 42.8 °F 82% 30.02 in 10.0 mi NNW 3.5 mph - N/A   Overcast
9:18 PM 48.2 °F - 42.8 °F 82% 30.02 in 10.0 mi NNW 4.6 mph - N/A   Overcast
9:35 PM 48.2 °F - 41.0 °F 76% 30.03 in 10.0 mi North 3.5 mph - N/A   Overcast
9:53 PM 48.0 °F - 41.0 °F 77% 30.06 in 10.0 mi Calm Calm - N/A   Overcast
10:53 PM 46.9 °F - 42.1 °F 83% 30.07 in 10.0 mi NNW 4.6 mph - 0.00 in   Overcast
11:04 PM 46.4 °F 45.2 °F 42.8 °F 87% 30.05 in 10.0 mi Variable 3.5 mph - N/A   Overcast
11:37 PM 46.4 °F 44.3 °F 42.8 °F 87% 30.05 in 10.0 mi NNW 4.6 mph - N/A   Overcast
11:53 PM 46.9 °F - 43.0 °F 86% 30.08 in 10.0 mi Calm Calm - N/A   Overcast